Tracking 26443 objects as of 4-Dec-2022
HD Live streaming from Space Station
objects crossing your sky now

COSMOS 1408 DEB

Track COSMOS 1408 DEB now!
10-day predictions


NORAD ID: 51192
Int'l Code: 1982-092AZS
Perigee: 411.2 km
Apogee: 437.5 km
Inclination: 82.6 °
Period: 92.9 minutes
Semi major axis: 6795 km
RCS: Unknown
Launch date: September 16, 1982
Source: Commonwealth of Independent States (former USSR) (CIS)
Launch site: PLESETSK MISSILE AND SPACE COMPLEX (PKMTR)

Note: This is SATELLITE DEBRIS
aabbcc
Your satellite tracking list
Your tracking list is empty




NASA's NSSDC Master Catalog

Two Line Element Set (TLE):
1 51192U 82092AZS 22337.35425765  .00077448  00000-0  13683-2 0  9996
2 51192  82.5841  99.1269 0019383  85.9072 274.4394 15.49843405 50213
Source of the keplerian elements: AFSPC